Weather observations for the past three days for
Wrangell
Imperial (Metric)
Date Time (akdt) Wind (mph) Vis. (mi.) Weather Sky Cond. Temperature (ºF) Relative Humidity Wind Chill (°F) Heat Index (°F) Pressure Precipitation (in)
Air Dwpt 6 hour altimeter (in) sea level (mb) 1 hr 3 hr 6 hr
Max. Min.
18 11:56 Calm 10.00 Overcast BKN010 OVC030 59 57.2 94% 30.06 0.0
18 10:56 Calm 10.00 Overcast SCT010 OVC032 57.2 57.2 100% 30.04 0.0
18 09:56 Calm 2.00 Fog/Mist OVC011 57.2 57.2 100% 30.04 0.0
18 08:56 Calm 0.50 Fog OVC011 57.2 57.2 100% 30.03 0.0
18 07:56 Calm 1.00 Fog/Mist OVC004 57.2 55.4 94% 30.01 0.0
18 06:56 Calm 2.50 Fog/Mist OVC004 57.2 55.4 94% 30 0.0
18 05:56 Calm 2.50 Light Rain Fog/Mist OVC008 57.2 57.2 100% 29.99 0.0
17 21:55 NE 3 10.00 Overcast BKN004 BKN026 OVC047 59 59 100% 29.94 0.0
17 20:55 SE 3 1.75 Light Rain Fog/Mist SCT006 BKN025 OVC050 59 57.2 94% 29.94 0.0
17 19:55 Calm 0.50 Light Rain Fog BKN008 OVC034 57.2 57.2 100% 29.93 0.0
17 18:55 NW 5 1.50 Rain Fog/Mist FEW007 BKN013 OVC038 59 57.2 94% 29.93 0.0
17 17:55 W 7 10.00 Light Rain OVC032 62.6 60.8 94% 29.92 0.0
17 16:55 SW 5 5.00 Light Rain Fog/Mist SCT031 OVC042 62.6 60.8 94% 29.91 0.0
17 15:55 Vrbl 7 7.00 Rain FEW028 SCT034 OVC048 62.6 59 88% 29.91 0.0
17 14:55 SE 8 7.00 Rain BKN030 OVC043 62.6 60.8 94% 29.92 0.0
17 13:55 S 12 9.00 Rain SCT031 BKN041 OVC048 62.6 59 88% 29.91 0.0
17 12:56 E 10 G 16 10.00 Light Rain BKN033 BKN043 OVC049 64.4 59 83% 29.9 0.0
17 11:56 SE 9 G 20 10.00 Light Rain BKN031 OVC048 64.4 59 83% 29.89 0.0
17 10:56 E 8 9.00 Light Rain FEW006 BKN031 OVC046 62.6 60.8 94% 29.88 0.0
17 09:56 E 9 6.00 Rain Fog/Mist BKN033 OVC048 60.8 60.8 100% 29.87 0.0
17 08:56 Vrbl 6 7.00 Rain BKN033 OVC048 60.8 59 94% 29.87 0.0
17 07:56 E 10 9.00 Light Rain BKN033 OVC048 60.8 59 94% 29.87 0.0
17 05:56 Vrbl 5 8.00 Light Rain FEW001 BKN037 OVC060 59 57.2 94% 29.86 0.0
16 21:55 Calm 0.75 Light Rain Fog/Mist OVC004 55.4 55.4 100% 29.96 0.0
16 20:55 Calm 1.50 Light Rain Fog/Mist OVC004 57.2 55.4 94% 29.97 0.0
16 19:55 Calm 1.25 Light Rain Fog/Mist OVC002 55.4 55.4 100% 29.99 0.0
16 18:55 Calm 2.50 Light Rain Fog/Mist BKN004 OVC033 57.2 57.2 100% 30 0.0
16 17:55 Calm 2.50 Light Rain Fog/Mist OVC008 57.2 57.2 100% 30.01 0.0
16 16:55 Calm 10.00 Light Rain BKN014 OVC031 57.2 57.2 100% 30.02 0.0
16 15:55 Calm 10.00 Light Rain SCT001 BKN031 OVC037 57.2 57.2 100% 30.03 0.0
16 14:55 Calm 6.00 Light Rain Fog/Mist FEW014 OVC029 57.2 57.2 100% 30.04 0.0
16 13:55 NW 3 10.00 Overcast SCT002 OVC028 57.2 55.4 94% 30.05 0.0
16 12:56 NW 3 2.00 Light Rain Fog/Mist SCT000 BKN005 OVC015 57.2 57.2 100% 30.06 0.0
16 11:56 NW 3 0.50 Light Rain Fog BKN000 BKN005 OVC015 57.2 57.2 100% 30.06 0.0
16 11:35 NW 3 0.25 Light Rain Fog BKN000 BKN005 OVC015 57.2 57.2 100% 30.06 0.0
16 10:56 N 3 1.00 Light Rain Fog/Mist SCT000 BKN005 OVC010 57.2 57.2 100% 30.06 0.0
16 09:56 NW 3 0.50 Light Rain Fog BKN000 OVC007 55.4 55.4 100% 30.06 0.0
16 08:56 NW 3 0.50 Light Rain Fog BKN000 OVC007 55.4 55.4 100% 30.05 0.0
16 07:56 N 3 6.00 Light Rain Fog/Mist BKN004 OVC010 57.2 57.2 100% 30.05 0.0
16 06:56 NW 3 4.00 Light Rain Fog/Mist BKN004 OVC010 55.4 55.4 100% 30.05 0.0
16 05:56 NW 3 4.00 Light Rain FEW000 BKN004 OVC010 55.4 55.4 100% 30.04 0.0
15 21:56 SE 3 10.00 Overcast FEW002 BKN026 OVC037 60.8 57.2 88% 30.03 0.0
15 20:56 SE 3 10.00 Light Rain FEW002 BKN033 OVC041 60.8 57.2 88% 30.03 0.0
15 19:56 Vrbl 5 10.00 Overcast FEW002 BKN033 OVC041 60.8 57.2 88% 30.02 0.0
15 18:56 Calm 10.00 Light Rain FEW007 BKN028 OVC041 60.8 57.2 88% 30.03 0.0
15 17:56 Calm 9.00 Light Rain SCT011 BKN028 OVC034 60.8 57.2 88% 30.03 0.0
15 16:56 N 5 7.00 Light Rain SCT011 BKN028 OVC034 60.8 57.2 88% 30.03 0.0
15 15:56 W 3 8.00 Light Rain SCT006 BKN027 OVC038 60.8 59 94% 30.02 0.0
15 14:56 W 5 6.00 Light Rain Fog/Mist SCT012 BKN028 OVC038 62.6 59 88% 30.02 0.0
15 13:56 Vrbl 3 7.00 Light Rain SCT005 BKN026 OVC038 62.6 60.8 94% 30.01 0.0
15 12:56 Vrbl 7 10.00 Light Rain FEW005 BKN030 OVC050 60.8 59 94% 30.01 0.0
Date Time (akdt) Wind (mph) Vis. (mi.) Weather Sky Cond. Air Dwpt Max. Min. Relative Humidity Wind Chill (°F) Heat Index (°F) altimeter (in) sea level (mb) 1 hr 3 hr 6 hr
6 hour
Temperature (ºF) Pressure Precipitation (in)